Temp
84 96 105 100 87 92 88 90 98 95 95 101 101 99 95 89 90 80 104 103 105 100 94 90 80 81 81 81 80 80 80 80 80 80 80 80 80 80 80 80 81 81 82 82 82 82 82 82 82
99 104 103 98 88 85 87 94 92 96 99 103 101 101 99 91 102 99 100 101 102 97 94 93 80 81 81 80 80 80 80 80 80 80 80 80 80 80 80 80 81 81 82 82 82 82 82 81 81
97 104 96 95 90 85 84 94 95 98 100 100 99 103 99 94 101 101 103 104 103 98 97 90 80 80 81 80 80 79 80 80 80 80 80 80 80 80 80 80 80 81 82 82 82 81 81 81 81
103 104 100 88 87 92 91 95 96 97 100 102 102 94 99 103 101 104 105 105 102 100 101 82 80 80 80 80 80 79 79 80 80 80 80 80 80 79 79 80 81 81 82 82 82 81 81 81 80
104 100 89 88 89 92 96 97 98 97 98 100 100 94 93 101 105 104 104 105 103 103 98 91 80 80 80 80 80 79 79 79 79 80 80 80 79 79 79 80 81 81 81 81 81 80 80 80 80
92 99 85 84 88 92 95 98 98 98 99 99 99 97 95 104 104 106 108 108 107 104 101 91 80 79 79 80 79 79 79 79 79 79 79 79 79 79 79 80 80 81 81 81 81 80 80 79 79
89 88 84 86 86 88 93 99 96 96 96 97 102 95 98 101 106 108 108 109 108 107 103 97 93 85 79 79 79 79 79 79 78 78 79 79 79 79 79 79 80 80 80 80 80 80 79 79 79
93 90 84 88 86 86 95 96 98 97 95 102 102 94 93 100 105 108 110 109 109 107 106 102 98 95 92 89 79 79 79 79 78 78 79 79 79 79 79 79 79 80 80 79 79 79 79 79 78
96 82 80 85 86 90 98 93 99 100 98 98 100 100 101 103 106 107 107 107 107 106 106 106 102 98 99 99 87 79 79 79 78 79 79 79 90 88 87 85 81 79 79 79 79 79 79 78 78
83 79 80 89 92 90 95 93 96 94 95 95 96 100 102 103 103 103 104 104 105 104 106 107 101 101 101 102 90 91 90 89 88 89 86 89 92 94 94 87 80 79 79 79 79 78 78 79 90
87 77 85 90 93 92 91 93 97 93 90 97 96 99 100 100 101 103 104 106 106 106 105 105 99 98 101 101 95 96 95 93 90 91 91 90 94 92 94 93 90 88 81 89 85 85 85 89 93
82 88 87 91 91 89 89 94 91 94 94 100 98 99 99 99 101 103 104 106 105 104 103 102 102 97 95 101 97 95 97 95 89 94 91 92 91 91 89 92 90 85 80 83 90 89 84 91 92
85 87 88 91 92 91 88 88 86 90 98 100 98 96 97 98 99 102 103 106 104 101 99 99 99 95 94 93 94 88 91 92 94 92 90 87 86 85 85 83 80 81 77 77 81 85 89 90 90
91 90 86 90 90 91 86 84 89 90 97 94 95 95 98 98 99 99 99 101 100 101 98 99 98 95 94 92 91 87 84 84 88 87 86 91 89 85 87 83 89 91 90 91 86 86 85 90 93
88 82 86 88 86 86 88 79 82 93 92 91 92 94 96 97 98 97 99 98 100 100 99 96 95 93 87 87 88 89 88 88 87 91 90 85 88 87 88 92 91 93 92 90 90 90 91 91 93
83 83 76 87 87 87 83 75 89 93 90 88 91 94 94 95 97 98 98 97 99 99 97 97 101 94 86 85 87 91 86 87 85 83 90 89 88 90 88 92 91 90 88 91 90 89 89 89 90
81 74 78 80 87 86 83 78 87 90 88 87 89 92 93 94 96 96 96 96 96 95 94 94 96 95 88 86 89 92 89 94 93 94 95 91 91 91 88 91 90 87 89 89 89 88 86 84 85
75 77 79 77 83 81 80 80 87 90 87 86 89 91 92 92 93 92 92 94 93 93 91 91 94 93 90 88 87 93 91 93 95 94 91 88 89 88 87 89 87 86 87 87 86 81 84 83 84
79 77 76 80 83 76 77 79 84 88 88 86 88 88 89 88 90 89 89 90 90 87 87 88 89 88 88 88 89 91 90 90 90 90 87 87 87 86 85 87 86 86 84 83 82 82 80 82 84
77 74 75 79 80 76 76 77 82 86 85 86 85 85 86 86 86 86 86 86 86 85 85 85 86 84 87 90 90 91 90 90 90 88 85 85 85 84 85 81 81 82 82 80 80 79 79 81 83
76 72 73 71 77 79 77 74 79 83 83 83 84 86 86 85 83 83 84 84 85 83 82 82 83 84 85 86 85 85 86 84 86 85 86 84 84 83 82 80 79 78 79 80 78 78 76 76 80
70 77 73 72 70 66 78 63 75 79 78 79 82 83 84 84 85 84 84 83 83 83 84 83 82 82 84 85 85 83 84 84 84 85 84 83 83 82 81 80 79 77 78 75 77 80 76 75 75
71 75 73 72 69 69 71 68 74 79 76 78 79 82 83 85 85 85 86 85 85 85 83 82 80 80 80 81 82 84 82 83 85 85 79 78 79 82 82 80 78 75 77 75 73 74 74 76 76
77 73 74 74 71 61 69 68 73 74 75 79 82 82 83 84 85 85 86 84 84 86 85 82 79 78 79 80 79 77 77 78 80 79 77 80 82 81 81 80 76 74 74 74 74 73 72 73 74
74 69 61 60 61 60 69 65 70 77 79 79 80 82 83 84 83 83 84 85 84 84 83 84 80 78 78 78 78 77 76 74 73 74 77 74 77 78 77 75 73 74 73 72 72 71 71 72 72
70 67 59 48 54 61 71 62 73 77 80 80 81 82 84 83 85 84 84 83 86 85 83 82 81 79 78 78 77 76 75 77 77 77 76 75 75 75 75 73 73 72 72 72 71 72 72 72 73
68 66 71 60 64 59 66 71 79 80 77 77 78 78 78 77 73 75 77 78 79 80 81 81 81 79 79 78 76 74 74 73 72 71 71 74 73 75 74 72 70 70 70 70 70 71 71 72 72
70 73 59 63 47 47 59 62 66 70 71 72 73 74 75 77 77 77 77 77 77 78 79 76 80 78 77 78 77 76 75 74 73 72 70 70 71 71 70 70 70 69 70 70 70 70 72 72 73
68 66 65 63 59 49 48 57 73 70 72 72 73 76 77 76 77 77 78 78 76 78 79 77 73 72 76 75 75 75 74 74 73 72 72 71 71 70 69 70 69 69 69 70 69 67 67 68 70
68 65 65 51 50 56 53 53 76 74 74 75 75 75 76 75 76 77 77 77 78 78 76 68 65 69 69 70 72 70 72 72 70 70 71 71 70 70 69 69 68 69 69 70 68 64 67 68 67
MSLP
1008.55 1007.35 1005.96 1004.83 1003.13 999.45 997.00 997.23 997.50 997.11 997.66 998.43 998.49 998.32 999.53 1000.10 999.19 1000.79 1002.81 1004.11 1004.71 1006.07 1007.57 1008.59 1009.27 1009.58 1009.87 1010.18 1010.48 1010.78 1010.99 1011.30 1011.62 1011.74 1012.08 1012.35 1012.56 1012.71 1012.89 1013.11 1013.26 1013.39 1013.52 1013.67 1013.85 1014.00 1014.14 1014.27 1014.35
1007.34 1006.00 1005.03 1002.84 1000.24 997.27 996.30 997.52 997.34 997.72 998.27 998.66 998.72 998.83 999.62 1000.85 1000.83 1002.23 1003.03 1004.72 1005.36 1006.61 1007.60 1008.33 1009.48 1009.78 1010.02 1010.33 1010.65 1010.94 1011.27 1011.51 1011.69 1011.94 1012.23 1012.50 1012.67 1012.89 1013.05 1013.22 1013.43 1013.59 1013.72 1013.87 1014.00 1014.15 1014.28 1014.40 1014.51
1007.42 1005.65 1003.85 1000.71 998.72 996.93 997.14 997.70 998.23 998.70 999.03 998.81 998.96 999.51 1000.15 1001.37 1002.05 1002.45 1003.87 1004.75 1005.68 1006.81 1007.48 1008.63 1009.48 1009.90 1010.22 1010.47 1010.78 1011.06 1011.34 1011.58 1011.78 1012.12 1012.44 1012.74 1012.95 1013.06 1013.18 1013.40 1013.58 1013.72 1013.85 1013.95 1014.08 1014.24 1014.36 1014.51 1014.61
1005.64 1003.77 1002.70 1000.34 997.89 997.54 998.19 998.66 999.01 998.92 999.24 999.35 999.12 1000.23 1001.74 1002.25 1002.54 1003.27 1004.27 1004.83 1005.82 1006.68 1007.15 1009.32 1009.75 1010.06 1010.43 1010.73 1011.09 1011.34 1011.56 1011.76 1011.96 1012.20 1012.50 1012.76 1013.02 1013.22 1013.36 1013.52 1013.75 1013.88 1013.96 1014.02 1014.14 1014.31 1014.46 1014.56 1014.61
1005.03 1003.12 1000.77 999.10 997.74 998.16 999.00 999.34 999.32 998.65 998.91 999.22 999.74 1000.33 1002.04 1003.04 1003.50 1004.07 1004.65 1005.03 1005.63 1006.22 1007.38 1008.96 1009.90 1010.32 1010.69 1010.93 1011.27 1011.49 1011.71 1012.00 1012.25 1012.48 1012.71 1012.94 1013.17 1013.33 1013.50 1013.66 1013.84 1013.98 1014.09 1014.16 1014.23 1014.32 1014.47 1014.56 1014.62
1004.38 1002.28 1000.35 998.55 998.04 998.97 999.59 999.84 999.54 999.18 999.24 999.85 999.92 1000.60 1002.20 1003.29 1003.47 1003.71 1003.98 1004.51 1005.24 1006.05 1007.14 1009.04 1010.05 1010.36 1010.73 1011.08 1011.42 1011.66 1011.92 1012.13 1012.34 1012.56 1012.78 1013.05 1013.27 1013.43 1013.52 1013.72 1013.83 1013.93 1014.04 1014.19 1014.30 1014.38 1014.44 1014.47 1014.54
1004.49 1002.63 1000.51 999.05 998.79 999.16 999.60 1000.33 999.93 999.77 999.83 1000.14 1000.53 1000.46 1002.24 1003.08 1003.43 1003.69 1003.97 1004.42 1005.05 1005.88 1006.88 1008.43 1009.35 1010.16 1010.71 1011.01 1011.31 1011.66 1012.01 1012.27 1012.46 1012.71 1012.92 1013.13 1013.31 1013.50 1013.62 1013.73 1013.92 1013.98 1014.16 1014.20 1014.23 1014.30 1014.35 1014.39 1014.39
1004.90 1003.57 1001.69 1000.03 999.23 999.27 1000.17 1000.67 1000.91 1000.58 1000.60 1001.71 1001.64 1000.74 1001.95 1003.64 1003.63 1003.66 1003.82 1004.18 1004.76 1005.66 1006.16 1007.41 1008.37 1009.39 1009.87 1010.57 1011.36 1011.61 1011.84 1012.16 1012.46 1012.72 1012.96 1013.18 1013.39 1013.53 1013.65 1013.84 1013.89 1014.04 1014.13 1014.23 1014.26 1014.32 1014.32 1014.34 1014.32
1005.28 1004.38 1002.44 1000.96 1000.17 1000.11 1000.28 1000.85 1001.01 1001.87 1001.37 1001.89 1002.19 1002.20 1003.23 1003.74 1003.70 1003.31 1003.42 1003.82 1004.24 1005.15 1005.78 1006.39 1007.42 1008.37 1008.66 1008.98 1010.79 1011.65 1012.02 1012.23 1012.47 1012.68 1012.92 1013.12 1012.59 1012.89 1013.09 1013.13 1013.48 1013.88 1014.09 1014.21 1014.26 1014.30 1014.26 1014.19 1014.07
1005.76 1004.83 1003.43 1002.52 1001.98 1001.74 1001.32 1001.83 1001.36 1001.84 1001.43 1001.66 1002.43 1003.26 1003.67 1003.66 1003.62 1003.27 1003.20 1003.23 1003.66 1004.44 1005.17 1005.85 1007.31 1007.69 1007.96 1007.81 1009.95 1010.60 1011.05 1011.54 1011.83 1011.92 1012.43 1012.37 1011.80 1011.60 1011.83 1012.33 1013.29 1013.62 1013.83 1013.90 1013.92 1013.87 1013.86 1013.91 1012.96
1005.26 1005.22 1004.25 1003.51 1003.39 1003.25 1003.01 1002.49 1002.27 1002.07 1001.74 1001.51 1001.67 1002.23 1003.26 1003.72 1003.72 1003.35 1003.25 1003.01 1003.30 1004.00 1004.97 1005.81 1007.06 1007.90 1007.65 1008.05 1008.96 1009.43 1009.80 1010.51 1011.24 1011.34 1011.62 1011.75 1011.28 1011.72 1011.79 1011.87 1012.32 1012.69 1013.05 1012.84 1012.66 1012.95 1013.01 1012.24 1011.65
1004.96 1004.70 1004.76 1004.07 1003.83 1004.06 1003.32 1003.23 1002.91 1002.47 1002.29 1002.14 1003.05 1003.39 1003.75 1003.74 1003.51 1003.32 1003.33 1003.23 1003.69 1004.54 1005.36 1006.30 1006.76 1007.94 1008.28 1007.64 1008.69 1008.76 1009.15 1009.74 1010.27 1010.63 1011.22 1011.13 1011.54 1011.43 1011.80 1011.42 1011.54 1012.01 1012.74 1012.45 1011.98 1011.86 1011.99 1011.42 1011.38
1004.46 1004.20 1004.48 1004.52 1004.03 1004.28 1004.31 1003.51 1003.49 1003.34 1002.83 1002.76 1003.68 1004.02 1004.08 1003.87 1003.81 1003.84 1003.90 1003.82 1004.03 1005.14 1006.23 1007.02 1007.35 1008.00 1008.45 1008.77 1008.67 1009.22 1009.51 1010.18 1010.15 1010.73 1011.39 1011.82 1012.06 1012.15 1012.36 1012.64 1012.79 1012.82 1013.12 1013.05 1012.86 1012.41 1011.95 1011.69 1011.48
1003.61 1003.69 1004.05 1004.31 1004.09 1004.23 1004.40 1004.06 1003.99 1003.38 1003.26 1003.52 1003.89 1004.06 1003.66 1003.69 1003.84 1003.98 1004.29 1004.35 1004.79 1005.32 1006.26 1006.78 1007.41 1008.08 1008.65 1009.04 1009.31 1009.77 1009.93 1010.14 1010.26 1010.32 1010.71 1011.25 1011.28 1012.05 1012.39 1012.55 1012.32 1011.81 1011.89 1011.87 1012.26 1012.15 1011.92 1011.31 1010.89
1004.39 1004.19 1003.74 1003.48 1003.94 1003.98 1004.09 1004.19 1003.36 1002.87 1003.35 1003.78 1003.76 1003.76 1003.72 1003.74 1004.04 1004.32 1004.41 1004.90 1005.31 1005.80 1006.26 1007.13 1007.60 1008.36 1009.30 1009.51 1009.81 1009.96 1009.93 1009.99 1010.18 1010.16 1010.82 1011.40 1011.60 1011.89 1011.95 1011.52 1011.73 1011.34 1011.51 1011.86 1011.60 1011.49 1011.23 1010.94 1010.43
1004.31 1003.90 1002.91 1001.94 1003.28 1003.96 1004.83 1003.06 1001.32 1002.71 1003.61 1003.84 1003.61 1003.48 1003.61 1003.89 1003.96 1004.25 1004.90 1005.37 1005.64 1006.04 1006.17 1006.93 1006.81 1007.77 1009.29 1009.65 1009.81 1009.57 1009.73 1009.68 1010.27 1010.49 1010.74 1011.37 1011.66 1011.52 1011.79 1011.54 1011.65 1011.96 1012.30 1011.72 1011.61 1011.53 1011.29 1010.97 1010.58
1003.22 1002.36 1001.65 1001.99 1003.26 1003.52 1004.04 1002.92 1002.93 1003.59 1003.77 1003.81 1003.66 1003.47 1003.56 1003.76 1004.08 1004.73 1005.37 1005.85 1006.15 1006.53 1006.83 1007.00 1007.08 1007.37 1008.91 1009.71 1009.62 1009.47 1009.84 1009.39 1009.47 1009.55 1009.62 1010.64 1011.11 1011.57 1011.95 1011.70 1011.93 1012.48 1012.15 1011.86 1011.74 1011.62 1011.61 1011.30 1010.89
1001.40 1001.25 1001.57 1001.58 1002.83 1003.91 1003.57 1002.95 1002.67 1002.65 1003.16 1003.75 1003.47 1003.52 1003.70 1003.97 1004.43 1005.36 1006.02 1006.31 1006.76 1006.88 1007.30 1007.47 1007.34 1007.55 1008.63 1009.35 1009.56 1009.18 1009.80 1009.46 1009.30 1009.72 1010.54 1011.52 1011.75 1012.07 1012.25 1011.96 1012.40 1012.62 1012.25 1012.09 1012.13 1012.46 1012.03 1011.67 1010.93
1002.84 1002.43 1002.10 1002.21 1003.12 1004.47 1003.91 1002.95 1002.51 1002.72 1002.92 1003.51 1003.50 1003.54 1004.05 1004.62 1005.56 1006.48 1006.83 1007.05 1007.34 1007.60 1007.69 1007.70 1007.70 1008.10 1008.64 1008.99 1008.77 1008.62 1008.92 1009.73 1010.20 1010.85 1011.57 1011.95 1012.11 1012.48 1012.54 1012.42 1012.45 1012.56 1012.50 1012.54 1012.59 1012.29 1011.85 1011.27 1010.82
1003.66 1003.16 1002.87 1002.92 1003.74 1004.66 1003.97 1003.04 1002.83 1002.71 1002.80 1003.48 1003.88 1004.27 1004.68 1005.39 1006.09 1006.77 1007.27 1007.64 1007.90 1008.09 1008.21 1008.28 1008.36 1008.95 1008.99 1008.74 1008.64 1008.63 1009.30 1010.11 1010.49 1011.37 1011.95 1012.18 1012.38 1012.64 1012.63 1013.06 1013.01 1012.96 1012.87 1012.72 1012.55 1012.22 1011.70 1011.21 1010.68
1004.02 1003.92 1003.80 1004.25 1004.36 1004.13 1003.11 1002.51 1001.20 1002.22 1003.53 1004.18 1004.76 1004.96 1005.31 1005.68 1006.48 1007.25 1007.72 1008.11 1008.42 1008.78 1009.03 1009.26 1009.49 1009.64 1009.62 1009.61 1009.91 1009.84 1010.26 1010.80 1011.02 1011.50 1011.58 1012.07 1012.37 1012.62 1012.90 1013.15 1013.32 1013.33 1013.26 1012.63 1012.38 1012.20 1011.91 1011.15 1010.60
1004.54 1004.94 1005.50 1005.19 1004.74 1003.41 1003.01 1002.12 1001.46 1001.86 1003.33 1004.18 1004.64 1005.23 1005.56 1006.16 1006.83 1007.52 1008.02 1008.49 1008.88 1009.28 1009.75 1010.07 1010.33 1010.44 1010.36 1010.20 1010.07 1010.20 1010.13 1010.19 1010.71 1011.17 1011.66 1012.22 1012.48 1012.70 1012.92 1013.07 1013.14 1013.35 1013.26 1012.99 1012.52 1012.01 1011.89 1011.46 1010.44
1005.69 1006.27 1005.95 1005.49 1004.87 1004.10 1002.90 1002.00 1001.04 1001.96 1002.37 1003.16 1004.67 1005.19 1005.78 1006.37 1006.82 1007.32 1007.85 1008.68 1009.23 1009.70 1010.24 1010.74 1011.10 1011.28 1011.36 1011.15 1010.94 1010.68 1010.67 1010.98 1011.16 1011.51 1012.23 1012.48 1012.46 1012.43 1012.59 1012.81 1013.05 1013.28 1013.24 1012.88 1012.81 1012.34 1011.87 1011.31 1010.49
1006.92 1006.48 1005.66 1005.04 1004.35 1003.22 1001.91 1002.25 1001.25 1001.76 1002.90 1003.31 1004.06 1005.36 1006.06 1006.47 1007.06 1007.62 1008.55 1009.23 1009.55 1009.94 1010.36 1011.00 1011.42 1011.65 1011.69 1011.68 1011.84 1011.73 1011.67 1011.73 1011.66 1011.92 1012.26 1012.11 1011.99 1012.25 1012.42 1012.63 1013.03 1013.21 1013.10 1012.66 1012.34 1012.07 1011.68 1011.11 1010.47
1006.82 1006.14 1004.68 1003.66 1003.02 1002.39 1002.93 1002.96 1002.26 1002.62 1003.55 1004.44 1004.64 1004.92 1006.06 1007.01 1007.66 1008.09 1008.52 1008.84 1009.63 1009.96 1010.48 1010.97 1011.41 1011.85 1012.06 1012.14 1012.27 1012.35 1012.48 1012.73 1012.74 1012.69 1012.33 1012.52 1012.42 1012.29 1012.43 1012.86 1013.01 1012.92 1012.73 1012.48 1012.10 1011.66 1011.27 1010.78 1010.10
1007.11 1007.22 1006.10 1005.24 1004.34 1003.14 1003.02 1002.46 1001.71 1003.48 1004.48 1005.31 1005.78 1006.07 1006.17 1006.98 1007.58 1007.94 1008.43 1009.23 1009.49 1009.57 1010.28 1011.04 1011.49 1011.88 1012.19 1012.28 1012.47 1012.70 1012.84 1012.64 1012.43 1012.49 1012.67 1012.80 1012.67 1012.66 1012.74 1012.99 1012.86 1012.82 1012.53 1012.16 1011.78 1011.31 1010.70 1010.18 1009.54
1007.52 1007.04 1007.54 1007.36 1006.34 1005.06 1003.58 1002.60 1002.04 1002.95 1004.59 1005.75 1006.50 1007.19 1007.62 1008.30 1009.35 1009.55 1010.02 1010.45 1010.57 1010.64 1010.73 1011.08 1011.25 1011.60 1011.80 1012.09 1012.41 1012.68 1012.83 1012.89 1012.87 1013.07 1013.20 1012.96 1012.90 1012.74 1012.74 1012.94 1012.69 1012.52 1012.23 1011.84 1011.48 1010.84 1010.25 1009.78 1009.21
1008.61 1008.65 1008.30 1007.59 1006.99 1005.98 1004.54 1004.01 1003.42 1004.20 1005.34 1006.60 1007.40 1008.14 1008.98 1009.60 1009.87 1010.39 1011.01 1011.32 1011.66 1011.68 1011.42 1011.24 1011.10 1011.39 1011.89 1011.79 1011.96 1012.24 1012.30 1012.49 1012.68 1012.84 1012.98 1013.08 1013.08 1012.98 1012.78 1012.71 1012.37 1012.10 1011.81 1011.44 1011.03 1010.31 1009.56 1009.00 1008.44
1008.57 1008.36 1008.56 1008.83 1009.08 1007.94 1006.73 1005.50 1005.06 1005.91 1006.35 1006.98 1007.69 1007.99 1008.50 1009.29 1009.80 1010.42 1010.91 1011.40 1011.68 1011.46 1011.40 1011.14 1011.48 1011.54 1011.34 1011.64 1011.91 1011.98 1012.22 1012.45 1012.57 1012.35 1012.20 1012.41 1012.58 1012.66 1012.54 1012.23 1011.91 1011.61 1011.21 1010.83 1010.40 1010.07 1009.58 1008.76 1008.06
1010.08 1009.67 1009.62 1009.76 1010.08 1009.60 1008.73 1006.90 1006.59 1006.46 1007.15 1007.76 1007.98 1008.49 1009.20 1010.07 1010.37 1010.58 1011.15 1011.23 1011.16 1011.08 1011.15 1011.45 1012.02 1012.12 1011.91 1012.36 1011.86 1011.78 1012.04 1012.25 1012.42 1012.34 1011.88 1011.82 1011.99 1012.35 1012.23 1011.88 1011.51 1011.11 1010.70 1010.26 1009.91 1009.72 1009.25 1008.72 1008.20
Wind_Speed
15 15 9 8 10 11 6 11 1 9 12 7 4 12 23 8 20 9 12 7 13 17 16 14 11 11 11 11 11 12 12 12 12 12 12 12 11 12 11 10 9 9 8 7 6 6 4 4 4
15 9 9 9 12 12 8 4 9 10 10 9 4 5 18 18 16 15 14 12 13 14 14 14 12 12 12 12 12 12 12 12 12 12 12 11 12 11 11 10 9 7 7 6 5 4 3 2 2
15 10 11 10 15 6 10 10 6 11 4 0 7 11 12 12 14 14 14 14 15 14 14 14 12 12 12 12 12 12 12 12 12 12 11 11 10 10 10 9 8 6 5 4 4 3 2 1 1
7 9 8 12 16 11 7 9 2 5 5 1 6 14 13 10 11 14 12 11 13 14 14 15 11 11 11 12 11 11 12 12 12 12 12 11 11 9 9 9 8 6 5 4 4 3 1 1 2
10 10 12 14 10 8 2 6 3 6 7 5 3 9 15 13 13 12 10 11 13 14 17 15 12 10 10 11 12 11 11 11 11 11 11 10 9 9 8 8 7 5 4 4 3 3 2 2 3
8 6 13 13 12 7 3 2 3 8 4 8 6 13 11 6 12 10 11 13 13 13 16 15 13 12 10 10 10 10 10 10 10 9 9 9 8 8 9 8 8 6 5 4 4 4 4 4 5
11 12 18 12 4 3 5 4 4 5 2 7 8 4 12 7 10 9 8 11 12 13 16 14 14 12 12 11 10 10 9 9 9 8 8 9 9 8 8 8 7 6 5 5 5 6 6 6 7
8 10 19 9 8 7 12 3 2 5 11 3 4 2 14 9 5 7 9 10 12 11 13 15 14 14 13 12 10 11 11 10 10 9 9 9 8 7 8 6 8 7 6 7 7 7 7 8 9
8 10 14 16 5 8 11 7 7 2 4 2 4 10 10 7 7 8 7 9 10 8 9 11 14 13 13 15 12 10 10 10 10 10 9 9 9 10 11 9 8 8 7 7 8 8 9 10 12
2 14 20 14 13 13 12 4 9 5 8 6 7 7 4 5 5 6 8 8 10 11 12 10 8 10 10 7 15 11 11 10 9 10 11 9 9 7 4 5 12 10 9 10 11 12 12 11 11
14 17 21 17 12 10 13 13 11 10 13 8 8 8 8 3 4 8 6 6 1 7 6 4 12 6 8 8 10 7 8 7 7 9 9 9 5 5 6 5 8 8 14 9 14 11 11 12 10
15 14 16 17 9 14 12 14 17 13 14 7 5 7 7 7 9 8 9 8 6 2 5 5 3 8 7 5 6 6 5 6 3 8 8 3 4 2 5 5 9 7 4 6 8 6 9 9 10
13 17 10 17 9 13 13 18 18 20 21 4 5 5 11 10 9 9 9 10 2 6 3 3 4 5 6 7 3 1 4 6 8 6 7 6 4 4 2 2 3 3 1 3 5 7 8 10 12
9 12 7 13 11 13 14 14 20 19 17 7 10 13 11 9 7 6 6 9 3 3 6 5 6 6 5 6 4 1 2 4 5 4 7 8 2 4 2 6 2 4 7 5 5 7 7 9 10
9 14 14 14 12 12 8 15 23 18 3 10 11 12 11 8 6 7 6 7 7 7 6 6 4 7 6 6 6 5 6 6 4 4 4 5 5 5 4 3 4 3 5 5 7 7 9 11 11
14 15 16 21 15 8 7 15 1 8 7 11 13 11 9 9 8 2 3 5 5 7 7 8 8 13 9 6 5 8 4 3 5 3 7 3 6 5 3 3 3 7 6 7 8 8 10 11 12
15 14 19 10 9 10 12 15 15 6 5 9 10 10 9 10 7 8 5 6 7 6 6 7 7 11 11 10 9 8 6 7 9 6 6 5 4 4 3 2 5 5 6 6 7 8 9 10 11
10 19 15 5 12 7 13 15 14 12 8 11 12 10 9 8 6 8 7 8 6 6 6 7 8 7 10 8 5 6 7 4 4 3 8 5 4 4 3 3 2 5 7 8 8 9 10 11 11
11 10 11 1 5 5 14 15 11 11 13 10 13 7 8 4 6 1 2 2 2 3 5 7 9 8 6 9 10 8 7 5 6 7 7 6 4 4 2 5 6 6 7 8 8 9 11 11 11
7 9 11 3 2 7 15 15 15 16 7 9 6 6 3 5 4 4 5 4 5 5 5 4 6 7 10 7 4 5 7 7 7 7 5 4 3 3 4 7 7 7 9 9 10 10 10 11 10
10 8 10 9 13 17 20 17 19 7 3 4 6 1 1 4 6 6 7 7 7 8 7 7 6 6 3 6 4 5 6 5 6 7 7 6 3 4 4 6 7 8 8 10 10 11 13 12 11
12 10 5 11 12 11 12 13 14 16 12 7 8 8 5 5 6 7 8 8 9 10 10 9 8 7 7 7 6 6 6 6 6 1 6 2 2 4 5 6 8 8 9 10 11 10 12 12 12
12 8 12 13 14 15 15 11 12 6 6 11 6 4 4 6 4 7 8 8 9 8 9 8 8 7 6 5 4 3 2 3 3 1 2 2 5 4 6 7 8 9 9 10 12 12 12 12 12
9 13 15 16 14 13 10 5 4 8 8 6 10 6 3 3 3 4 7 4 5 6 7 6 5 4 4 4 3 4 3 3 4 1 4 5 4 5 6 8 9 10 10 11 11 12 14 13 13
7 11 9 5 9 7 7 7 8 9 11 8 8 6 9 2 4 4 8 8 4 1 3 1 2 2 2 2 2 2 2 3 4 5 5 6 6 7 7 9 9 10 11 13 13 13 13 13 14
9 6 7 8 10 15 17 13 4 8 5 3 6 8 3 6 6 3 5 4 9 4 3 4 6 6 6 6 5 4 4 6 5 5 5 6 7 8 9 11 12 14 15 14 13 13 13 13 13
4 6 10 9 16 14 14 14 8 13 8 9 11 8 14 18 18 23 21 21 20 17 12 13 10 11 10 9 7 7 7 7 7 8 7 7 8 9 10 13 13 14 16 15 14 13 13 14 13
8 9 8 8 8 13 11 17 9 10 9 5 3 3 7 12 14 12 13 16 16 17 19 13 13 12 14 14 9 9 9 7 8 8 9 10 11 12 12 14 14 14 15 15 13 13 13 13 12
5 10 8 3 9 12 14 8 7 11 7 9 6 12 9 8 10 12 15 14 13 15 17 15 11 12 12 11 12 12 10 9 10 10 9 10 11 12 14 14 14 14 14 14 12 12 14 15 14
8 12 12 8 11 12 15 15 19 6 3 15 17 16 16 16 15 16 17 19 19 17 17 5 5 16 14 15 14 9 9 10 11 12 12 10 12 12 14 14 14 14 14 14 12 12 11 15 15
Wind_Direction
271 240 261 254 243 230 202 110 335 118 105 75 24 45 81 326 23 56 94 73 122 119 131 143 122 120 122 124 125 127 131 138 145 140 144 146 144 142 137 137 133 124 114 109 106 110 119 112 115
294 275 242 274 252 233 114 85 77 66 77 103 77 84 67 57 73 111 120 117 114 124 141 137 130 128 128 129 127 129 134 140 140 139 148 150 148 147 146 145 140 128 116 108 108 112 118 117 123
261 263 274 230 243 319 60 66 54 100 115 358 112 32 25 62 51 73 89 124 121 133 148 128 136 133 136 135 134 133 139 141 140 144 149 151 152 150 149 151 152 143 129 121 122 121 123 137 177
285 232 236 250 228 81 352 52 44 161 136 5 63 94 79 35 59 78 112 119 128 141 144 130 132 132 137 140 144 143 143 143 146 152 154 156 157 154 152 156 162 157 150 147 148 145 142 227 230
248 262 261 227 261 54 328 44 340 212 112 126 274 117 93 89 95 106 116 136 144 147 118 142 135 135 143 149 153 151 148 146 149 154 156 159 161 159 160 162 166 168 169 166 168 172 193 217 242
283 264 264 235 199 126 208 4 308 283 112 101 220 126 86 119 118 124 135 135 142 142 131 137 139 143 147 152 154 151 152 152 151 153 157 163 163 165 166 172 176 183 190 198 207 213 224 233 237
261 292 272 311 39 163 107 330 13 358 260 82 13 205 114 118 115 116 109 120 134 139 136 156 160 154 154 156 155 154 153 149 148 150 154 161 169 175 180 183 192 197 209 219 222 230 239 250 253
294 289 279 281 280 235 102 266 7 321 61 42 292 318 147 126 177 147 148 141 138 148 148 152 160 170 174 161 161 161 160 159 155 157 161 167 171 180 188 193 203 213 221 229 234 240 245 250 254
305 271 267 272 253 273 96 268 112 37 278 38 33 38 72 142 196 188 162 167 154 152 148 161 160 172 194 160 154 161 166 164 162 167 173 172 206 179 179 207 167 194 223 241 245 247 247 250 250
208 278 263 324 338 322 333 308 325 300 225 193 164 129 143 177 203 231 202 199 179 167 164 179 155 186 198 186 143 183 172 184 191 186 175 218 218 191 248 138 160 190 215 237 241 237 236 240 261
217 232 271 278 297 300 298 299 287 271 274 282 253 163 157 215 220 264 235 295 164 165 131 249 139 214 219 199 156 182 174 188 191 196 182 215 180 194 203 192 195 208 203 229 213 222 228 238 244
239 236 244 275 267 283 273 292 286 291 278 348 344 349 306 255 265 245 255 245 207 18 128 163 171 176 231 216 186 187 193 180 203 192 188 225 223 154 334 338 5 27 20 330 347 321 340 307 283
228 249 213 264 249 267 278 282 283 278 284 331 282 255 256 254 260 267 270 280 75 134 190 228 192 191 195 239 123 316 175 174 205 159 171 184 197 189 218 12 344 316 316 334 312 296 301 301 293
277 263 234 236 246 245 251 260 269 258 262 268 255 265 260 252 270 253 238 252 169 172 133 185 202 164 200 214 188 192 91 201 187 181 148 184 189 104 202 213 276 251 194 197 233 248 268 284 286
273 253 240 240 245 247 261 259 246 238 220 262 271 260 256 260 245 244 214 204 193 187 165 198 192 138 170 212 193 189 186 172 186 151 139 101 176 173 268 250 284 318 352 310 262 283 295 289 287
243 234 254 221 196 210 226 273 102 121 212 253 261 258 255 258 234 222 228 239 240 249 158 203 211 144 158 171 195 206 163 155 113 138 148 157 177 217 143 240 355 25 305 308 309 310 307 304 302
220 255 233 153 189 249 198 266 119 170 247 264 266 262 248 247 247 242 219 252 248 226 233 229 204 158 159 149 188 176 149 207 165 191 168 129 80 122 300 320 19 345 303 313 318 312 324 316 303
285 211 240 283 161 208 261 259 268 211 182 266 269 275 274 274 284 4 311 271 283 239 215 204 202 177 174 152 216 159 181 176 163 103 81 125 106 96 339 351 21 316 317 325 345 327 306 299 290
307 303 303 39 64 290 271 275 286 286 271 266 263 283 287 345 42 321 316 248 203 172 182 192 205 148 181 181 195 181 168 127 147 93 124 132 105 80 16 332 350 323 314 339 303 297 303 297 302
269 266 263 284 262 265 277 273 277 264 269 275 309 257 236 177 107 75 88 101 97 98 103 143 172 154 212 193 228 172 149 176 140 128 127 113 87 31 332 353 332 332 319 312 305 290 297 295 300
238 285 332 327 323 276 256 272 250 152 246 204 231 263 178 116 110 101 91 98 106 103 109 112 122 140 151 102 107 87 89 102 163 158 171 101 18 0 341 326 316 312 298 293 312 310 301 288 286
292 33 293 288 290 293 345 292 290 160 187 193 170 210 152 114 119 116 116 105 103 104 102 102 104 117 137 188 147 162 185 195 79 105 71 351 269 327 313 308 315 314 308 300 290 296 316 305 291
307 336 298 288 280 286 270 244 260 158 198 166 170 186 168 172 150 139 117 103 99 108 98 96 88 76 65 52 91 213 306 124 160 219 100 293 245 268 306 309 316 313 303 311 303 290 285 286 284
320 277 266 254 253 259 236 321 284 75 54 17 138 165 184 204 116 96 93 111 101 131 120 108 103 92 87 77 60 29 62 346 314 342 311 279 303 312 303 318 315 309 296 295 304 297 289 284 286
250 287 286 251 210 254 100 286 300 35 51 359 339 160 159 161 230 199 194 187 140 148 59 49 181 280 310 306 325 319 328 320 288 269 294 331 300 310 326 330 310 306 305 300 297 295 294 285 279
305 321 300 299 309 319 323 283 257 121 129 56 346 331 52 177 254 238 356 332 309 328 198 302 299 265 245 259 265 268 272 271 285 268 313 300 312 304 321 301 302 304 302 300 297 293 293 294 286
88 276 8 304 266 262 275 275 245 127 127 85 47 27 25 16 19 11 10 5 353 339 314 300 284 280 268 259 256 259 264 273 295 302 291 284 292 293 303 303 297 297 296 295 294 287 290 287 283
278 356 291 231 282 282 293 317 311 48 79 84 42 35 3 348 339 338 328 335 327 322 316 314 283 274 290 295 270 265 254 256 268 270 273 282 284 285 294 294 293 294 293 291 288 287 289 288 287
265 260 214 272 302 299 303 283 76 353 334 350 298 292 330 293 297 313 319 309 307 301 302 305 305 322 287 258 264 268 267 278 281 273 271 284 291 293 292 294 297 293 290 289 287 288 284 278 289
287 289 300 288 285 290 291 287 291 309 317 321 316 334 336 340 334 330 314 307 302 300 299 277 17 329 283 293 286 261 262 276 282 282 279 284 287 290 292 292 293 289 293 289 297 293 293 299 299